TimeEST,TemperatureF,Dew PointF,Humidity,Sea Level PressureIn,VisibilityMPH,Wind Direction,Wind SpeedMPH,Gust SpeedMPH,PrecipitationIn,Events,Conditions,WindDirDegrees,DateUTC
12:53 AM,33.1,30.9,92,30.14,4.0,Calm,Calm,-,N/A,,Clear,0,2013-01-21 05:53:00
1:53 AM,30.9,30.0,96,30.13,4.0,Calm,Calm,-,N/A,,Clear,0,2013-01-21 06:53:00
2:22 AM,30.2,30.2,100,30.11,2.5,Calm,Calm,-,N/A,,Clear,0,2013-01-21 07:22:00
2:53 AM,30.9,28.9,92,30.13,2.5,Calm,Calm,-,N/A,,Clear,0,2013-01-21 07:53:00
4:03 AM,30.2,28.4,93,30.11,3.0,Calm,Calm,-,N/A,,Clear,0,2013-01-21 09:03:00
4:14 AM,30.2,28.4,93,30.11,2.5,Calm,Calm,-,N/A,,Clear,0,2013-01-21 09:14:00
4:35 AM,30.2,28.4,93,30.10,3.0,Calm,Calm,-,N/A,,Clear,0,2013-01-21 09:35:00
4:42 AM,30.2,28.4,93,30.10,2.5,Calm,Calm,-,N/A,,Clear,0,2013-01-21 09:42:00
4:53 AM,30.0,28.0,92,30.12,2.5,Calm,Calm,-,N/A,,Clear,0,2013-01-21 09:53:00
5:02 AM,30.2,28.4,93,30.10,3.0,Calm,Calm,-,N/A,,Clear,0,2013-01-21 10:02:00
5:29 AM,30.2,28.4,93,30.10,2.5,Calm,Calm,-,N/A,,Clear,0,2013-01-21 10:29:00
5:53 AM,30.0,28.0,92,30.13,3.0,Calm,Calm,-,N/A,,Clear,0,2013-01-21 10:53:00
6:09 AM,30.2,28.4,93,30.11,2.5,Calm,Calm,-,N/A,,Clear,0,2013-01-21 11:09:00
6:49 AM,30.2,26.6,86,30.11,3.0,Calm,Calm,-,N/A,,Scattered Clouds,0,2013-01-21 11:49:00
7:51 AM,28.4,26.6,93,30.13,2.5,Calm,Calm,-,N/A,,Clear,0,2013-01-21 12:51:00
7:53 AM,28.9,27.0,92,30.16,2.5,Calm,Calm,-,N/A,,Clear,0,2013-01-21 12:53:00
8:01 AM,28.4,26.6,93,30.13,3.0,Calm,Calm,-,N/A,,Clear,0,2013-01-21 13:01:00
8:08 AM,30.2,28.4,93,30.14,2.5,Calm,Calm,-,N/A,,Clear,0,2013-01-21 13:08:00
8:27 AM,30.2,28.4,93,30.14,3.0,Calm,Calm,-,N/A,,Clear,0,2013-01-21 13:27:00
8:53 AM,36.0,33.1,89,30.16,4.0,Calm,Calm,-,N/A,,Clear,0,2013-01-21 13:53:00
9:53 AM,46.0,35.1,66,30.17,8.0,Calm,Calm,-,N/A,,Clear,0,2013-01-21 14:53:00
10:53 AM,53.1,34.0,48,30.17,10.0,Calm,Calm,-,N/A,,Clear,0,2013-01-21 15:53:00
11:53 AM,57.0,34.0,42,30.15,10.0,WNW,11.5,-,N/A,,Clear,300,2013-01-21 16:53:00
12:53 PM,60.1,35.1,39,30.12,10.0,NW,12.7,18.4,N/A,,Clear,310,2013-01-21 17:53:00
1:53 PM,59.0,33.1,38,30.12,10.0,NW,13.8,21.9,N/A,,Clear,310,2013-01-21 18:53:00
2:53 PM,59.0,33.1,38,30.11,10.0,WNW,10.4,23.0,N/A,,Clear,290,2013-01-21 19:53:00
3:53 PM,57.9,33.1,39,30.12,10.0,WNW,10.4,-,N/A,,Clear,300,2013-01-21 20:53:00
4:53 PM,55.9,32.0,40,30.13,10.0,NW,10.4,-,N/A,,Clear,320,2013-01-21 21:53:00
5:53 PM,51.1,32.0,48,30.15,10.0,NW,9.2,-,N/A,,Clear,320,2013-01-21 22:53:00
6:53 PM,48.9,30.0,48,30.17,10.0,NW,9.2,-,N/A,,Clear,320,2013-01-21 23:53:00
7:53 PM,45.0,30.0,56,30.17,10.0,NW,3.5,-,N/A,,Clear,310,2013-01-22 00:53:00
8:53 PM,39.9,28.9,65,30.19,10.0,WNW,3.5,-,N/A,,Clear,290,2013-01-22 01:53:00
9:53 PM,42.1,25.0,51,30.20,10.0,NW,8.1,-,N/A,,Clear,310,2013-01-22 02:53:00
10:53 PM,41.0,21.9,47,30.21,10.0,NW,9.2,-,N/A,,Clear,320,2013-01-22 03:53:00
11:53 PM,39.0,21.0,49,30.20,10.0,NW,6.9,-,N/A,,Clear,310,2013-01-22 04:53:00